User: anonymous
Location: Natural Bridges National Monument
(37.6093°N, 109.9767°W)
Time: 16:19:28
(UTC-06:00)
Language:

Cosmos 1727 Rocket - Orbit

View from above orbital plane
View from above orbital plane
View from above satellite
View from above satellite

Ground track
Ground track

The orbit data is extracted from the following two-line orbital elements,

1 16511U 86008B   14274.45392802  .00000006  00000-0 -94524-5 0  5955
2 16511 082.9449 233.8587 0024854 164.2254 314.1245 13.75769474440185
Epoch (UTC): 01 October 2014 10:53:39
Eccentricity: 0.0024854
inclination: 82.9449°
perigee height: 960 km
apogee height: 997 km
right ascension of ascending node: 233.8587°
argument of perigee: 164.2254°
revolutions per day: 13.75769474
mean anomaly at epoch: 314.1245°
orbit number at epoch: 44018

The dashed part of the orbit path shows where the satellite is in the earth's shadow,  

DLR